• In Portugal
  • List of Countries
  • For 7 days
  • Water Temperature
  • Satellite Maps
  • Weather Map
  • Weather Widgets
  • user-avatar
    Login

    Hourly Weather Solno

    Today, 22 September, Saturday

    Time Temperature Precipitation Wind Pressure Humidity
    00:00 +11°C° 0.1 mm 7 mps 750 mmHg 77%
    01:00 +11°C° 0.1 mm 7 mps 751 mmHg 74%
    02:00 +10°C° 0 mm 7 mps 751 mmHg 74%
    03:00 +10°C° 0 mm 7 mps 751 mmHg 74%
    04:00 +10°C° 0 mm 7 mps 751 mmHg 73%
    05:00 +10°C° 0 mm 7 mps 752 mmHg 73%
    06:00 +10°C° 0 mm 7 mps 752 mmHg 73%
    07:00 +10°C° 0 mm 7 mps 752 mmHg 73%
    08:00 +11°C° 0.2 mm 7 mps 753 mmHg 71%
    09:00 +11°C° 0.2 mm 7 mps 753 mmHg 69%
    10:00 +12°C° 0.2 mm 7 mps 754 mmHg 67%
    11:00 +14°C° 0.2 mm 7 mps 754 mmHg 63%
    12:00 +15°C° 0.2 mm 7 mps 754 mmHg 59%
    13:00 +16°C° 0.2 mm 7 mps 754 mmHg 55%
    14:00 +15°C° 0.4 mm 7 mps 754 mmHg 57%
    15:00 +15°C° 0.4 mm 7 mps 754 mmHg 59%
    16:00 +15°C° 0.4 mm 7 mps 754 mmHg 61%
    17:00 +14°C° 0.3 mm 6 mps 754 mmHg 67%
    18:00 +11°C° 0.3 mm 6 mps 754 mmHg 72%
    19:00 +10°C° 0.3 mm 5 mps 754 mmHg 77%
    20:00 +10°C° 0.2 mm 6 mps 754 mmHg 78%
    21:00 +10°C° 0.2 mm 6 mps 753 mmHg 79%
    22:00 +10°C° 0.2 mm 6 mps 753 mmHg 79%
    23:00 +9°C° 0.1 mm 6 mps 753 mmHg 79%

    Tomorrow, 23 September, Sunday

    Time Temperature Precipitation Wind Pressure Humidity
    00:00 +9°C° 0.1 mm 6 mps 753 mmHg 79%
    01:00 +9°C° 0.1 mm 6 mps 753 mmHg 79%
    02:00 +8°C° 0.2 mm 6 mps 753 mmHg 80%
    03:00 +8°C° 0.2 mm 6 mps 753 mmHg 81%
    04:00 +8°C° 0.2 mm 6 mps 753 mmHg 81%
    05:00 +8°C° 0.2 mm 6 mps 753 mmHg 81%
    06:00 +8°C° 0.2 mm 6 mps 753 mmHg 81%
    07:00 +8°C° 0.2 mm 7 mps 753 mmHg 81%
    08:00 +10°C° 0.2 mm 7 mps 753 mmHg 76%
    09:00 +11°C° 0.2 mm 7 mps 753 mmHg 71%
    10:00 +12°C° 0.2 mm 7 mps 753 mmHg 66%
    11:00 +14°C° 0.1 mm 7 mps 753 mmHg 63%
    12:00 +14°C° 0.1 mm 6 mps 753 mmHg 60%
    13:00 +15°C° 0.1 mm 6 mps 753 mmHg 57%
    14:00 +15°C° 0.1 mm 5 mps 752 mmHg 59%
    15:00 +14°C° 0.1 mm 4 mps 752 mmHg 60%
    16:00 +14°C° 0.1 mm 4 mps 751 mmHg 61%
    17:00 +13°C° 0.1 mm 3 mps 751 mmHg 66%
    18:00 +13°C° 0.1 mm 2 mps 750 mmHg 70%
    19:00 +12°C° 0.1 mm 1 mps 750 mmHg 75%
    20:00 +12°C° 0.5 mm 1 mps 749 mmHg 79%
    21:00 +12°C° 0.5 mm 1 mps 749 mmHg 83%
    22:00 +11°C° 0.5 mm 1 mps 748 mmHg 87%
    23:00 +10°C° 0.7 mm 2 mps 748 mmHg 87%

    Day after tomorrow, 24 September, Monday

    Time Temperature Precipitation Wind Pressure Humidity
    00:00 +10°C° 0.7 mm 3 mps 748 mmHg 88%
    01:00 +10°C° 0.7 mm 4 mps 748 mmHg 88%
    02:00 +10°C° 0.3 mm 4 mps 749 mmHg 86%
    03:00 +9°C° 0.3 mm 5 mps 749 mmHg 83%
    04:00 +9°C° 0.3 mm 6 mps 750 mmHg 80%
    05:00 +9°C° 0.3 mm 6 mps 751 mmHg 78%
    06:00 +9°C° 0.3 mm 7 mps 751 mmHg 76%
    07:00 +9°C° 0.3 mm 7 mps 752 mmHg 74%
    08:00 +9°C° 0.5 mm 7 mps 752 mmHg 70%
    09:00 +10°C° 0.5 mm 8 mps 753 mmHg 67%
    10:00 +11°C° 0.5 mm 9 mps 753 mmHg 63%
    11:00 +11°C° 0.7 mm 8 mps 754 mmHg 64%
    12:00 +10°C° 0.7 mm 8 mps 755 mmHg 65%
    13:00 +10°C° 0.7 mm 7 mps 756 mmHg 66%
    14:00 +10°C° 0.5 mm 7 mps 757 mmHg 66%
    15:00 +10°C° 0.5 mm 6 mps 758 mmHg 66%
    16:00 +10°C° 0.5 mm 5 mps 758 mmHg 66%
    17:00 +9°C° 0.3 mm 5 mps 759 mmHg 69%
    18:00 +8°C° 0.3 mm 5 mps 759 mmHg 72%
    19:00 +7°C° 0.3 mm 4 mps 760 mmHg 74%
    20:00 +7°C° 0.4 mm 4 mps 760 mmHg 74%
    21:00 +7°C° 0.4 mm 5 mps 761 mmHg 74%
    22:00 +7°C° 0.4 mm 5 mps 762 mmHg 74%
    23:00 +7°C° 0.2 mm 5 mps 762 mmHg 75%

    25 September, Tuesday

    Time Temperature Precipitation Wind Pressure Humidity
    00:00 +7°C° 0.2 mm 4 mps 763 mmHg 76%
    01:00 +6°C° 0.2 mm 4 mps 763 mmHg 77%
    02:00 +6°C° 0 mm 4 mps 763 mmHg 76%
    03:00 +6°C° 0 mm 4 mps 764 mmHg 76%
    04:00 +5°C° 0 mm 4 mps 764 mmHg 75%
    05:00 +6°C° 0 mm 4 mps 764 mmHg 74%
    06:00 +6°C° 0 mm 4 mps 765 mmHg 72%
    07:00 +6°C° 0 mm 4 mps 765 mmHg 71%
    08:00 +8°C° 0 mm 5 mps 765 mmHg 67%
    09:00 +10°C° 0 mm 6 mps 765 mmHg 62%
    10:00 +11°C° 0 mm 8 mps 765 mmHg 58%
    11:00 +11°C° 0.4 mm 8 mps 764 mmHg 62%
    12:00 +11°C° 0.4 mm 9 mps 763 mmHg 67%
    13:00 +10°C° 0.4 mm 9 mps 763 mmHg 71%
    14:00 +9°C° 2 mm 10 mps 762 mmHg 75%
    15:00 +9°C° 2 mm 10 mps 761 mmHg 79%
    16:00 +8°C° 2 mm 11 mps 760 mmHg 83%
    17:00 +8°C° 2.4 mm 10 mps 760 mmHg 81%
    18:00 +9°C° 2.4 mm 10 mps 760 mmHg 79%
    19:00 +9°C° 2.4 mm 10 mps 760 mmHg 76%
    20:00 +9°C° 0.2 mm 8 mps 760 mmHg 76%
    21:00 +9°C° 0.2 mm 7 mps 760 mmHg 76%
    22:00 +8°C° 0.2 mm 6 mps 761 mmHg 76%
    23:00 +8°C° 0 mm 6 mps 761 mmHg 76%

    26 September, Wednesday

    Time Temperature Precipitation Wind Pressure Humidity
    00:00 +8°C° 0 mm 5 mps 761 mmHg 76%
    01:00 +8°C° 0 mm 5 mps 762 mmHg 76%
    02:00 +7°C° 0 mm 5 mps 762 mmHg 77%
    03:00 +7°C° 0 mm 5 mps 762 mmHg 78%
    04:00 +7°C° 0 mm 4 mps 763 mmHg 79%
    05:00 +8°C° 0 mm 4 mps 763 mmHg 79%
    06:00 +8°C° 0 mm 4 mps 763 mmHg 80%
    07:00 +9°C° 0 mm 3 mps 764 mmHg 81%
    08:00 +11°C° 0 mm 4 mps 764 mmHg 75%
    09:00 +12°C° 0 mm 4 mps 764 mmHg 69%
    10:00 +14°C° 0 mm 4 mps 765 mmHg 63%
    11:00 +14°C° 0 mm 5 mps 765 mmHg 62%
    12:00 +15°C° 0 mm 5 mps 765 mmHg 62%
    13:00 +15°C° 0 mm 5 mps 765 mmHg 61%
    14:00 +15°C° 0.1 mm 5 mps 764 mmHg 66%
    15:00 +15°C° 0.1 mm 5 mps 764 mmHg 71%
    16:00 +14°C° 0.1 mm 5 mps 764 mmHg 76%
    17:00 +13°C° 0 mm 5 mps 764 mmHg 79%
    18:00 +13°C° 0 mm 5 mps 764 mmHg 81%
    19:00 +12°C° 0 mm 4 mps 763 mmHg 84%
    20:00 +12°C° 0 mm 5 mps 763 mmHg 82%
    21:00 +12°C° 0 mm 5 mps 763 mmHg 80%
    22:00 +10°C° 0 mm 6 mps 762 mmHg 77%
    23:00 +10°C° 0 mm 6 mps 762 mmHg 77%

    27 September, Thursday

    Time Temperature Precipitation Wind Pressure Humidity
    00:00 +10°C° 0 mm 6 mps 761 mmHg 76%
    01:00 +10°C° 0 mm 7 mps 761 mmHg 75%
    02:00 +9°C° 0 mm 7 mps 760 mmHg 75%
    03:00 +9°C° 0 mm 7 mps 760 mmHg 74%
    04:00 +9°C° 0 mm 7 mps 759 mmHg 74%
    05:00 +9°C° 0 mm 7 mps 759 mmHg 73%
    06:00 +9°C° 0 mm 7 mps 758 mmHg 72%
    07:00 +9°C° 0 mm 7 mps 758 mmHg 71%
    08:00 +11°C° 0 mm 8 mps 758 mmHg 65%
    09:00 +12°C° 0 mm 8 mps 757 mmHg 60%
    10:00 +15°C° 0 mm 8 mps 757 mmHg 54%
    11:00 +15°C° 0 mm 8 mps 756 mmHg 51%
    12:00 +16°C° 0 mm 8 mps 756 mmHg 49%
    13:00 +17°C° 0 mm 8 mps 755 mmHg 46%
    14:00 +17°C° 0.1 mm 8 mps 754 mmHg 49%
    15:00 +16°C° 0.1 mm 7 mps 754 mmHg 51%
    16:00 +16°C° 0.1 mm 7 mps 753 mmHg 54%
    17:00 +15°C° 0.2 mm 7 mps 753 mmHg 59%
    18:00 +15°C° 0.2 mm 8 mps 752 mmHg 64%
    19:00 +13°C° 0.2 mm 8 mps 752 mmHg 69%
    20:00 +12°C° 1.2 mm 8 mps 753 mmHg 73%
    21:00 +12°C° 1.2 mm 8 mps 753 mmHg 78%
    22:00 +11°C° 1.2 mm 8 mps 754 mmHg 83%
    23:00 +10°C° 0.1 mm 7 mps 754 mmHg 81%
    Show more